Change the Weather History Date:

Monday, December 9, 2013

  Actual Average (KARV) Record (KARV)
Temperature  
Mean Temperature -2 °F -  
Max Temperature 8 °F 25 °F 54 °F (1939)
Min Temperature -13 °F 7 °F -32 °F (1927)
Degree Days  
Heating Degree Days 67    
Moisture  
Dew Point -5 °F    
Average Humidity 79    
Maximum Humidity 88    
Minimum Humidity 66    
Precipitation  
Precipitation 0.00 in - - ()
Sea Level Pressure  
Sea Level Pressure 29.83 in    
Wind  
Wind Speed 5 mph (WSW)    
Max Wind Speed 18 mph    
Max Gust Speed 30 mph    
Visibility 6 miles    
Events Snow    
Averages and records for this station are not official NWS values.
T = Trace of Precipitation, MM = Missing Value Source: NWS Daily Summary

Daily Weather History Graph

Daily Weather History Graph

Search for Another Location

Airport or City:

Trip Planner

Search our weather history database for the weather conditions in past years. The results will help you decide how hot, cold, wet, or windy it might be!

Date:

Astronomy

Dec. 09, 2013 Rise Set
Actual Time 7:30 AM CST 4:13 PM CST
Civil Twilight 6:55 AM CST 4:48 PM CST
Nautical Twilight 6:17 AM CST 5:26 PM CST
Astronomical Twilight 5:41 AM CST 6:02 PM CST
Moon 12:03 PM CST (12/9) No Moon Set
Length of Visible Light 9h 52m
Length of Day
8h 43m
Waxing Crescent, 51% of the Moon is Illuminated
Dec 9
Waxing Crescent
Dec 17
Full
Dec 25
Last Quarter
Jan 1
New
Jan 7
First Quarter

Hourly Weather History & Observations

Time (CST) Temp. Windchill Dew Point Humidity Pressure Visibility Wind Dir Wind Speed Gust Speed Precip Events Conditions
12:15 AM 8.4 °F - 5.4 °F 87% 29.89 in 2.5 mi Calm Calm - N/A Snow Light Snow
12:35 AM 8.6 °F - 5.5 °F 87% 29.88 in 2.5 mi Calm Calm - N/A Snow Light Snow
12:55 AM 8.6 °F - 5.5 °F 87% 29.87 in 2.5 mi Calm Calm - N/A Snow Light Snow
1:15 AM 8.4 °F - 5.5 °F 88% 29.86 in 2.0 mi Calm Calm - N/A Snow Light Snow
1:35 AM 8.4 °F - 5.5 °F 88% 29.85 in 1.8 mi Calm Calm - N/A Snow Light Snow
1:55 AM 8.2 °F - 5.4 °F 88% 29.84 in 1.2 mi Calm Calm - N/A Snow Light Snow
2:15 AM 8.1 °F - 5.0 °F 87% 29.84 in 1.2 mi Calm Calm - N/A Snow Snow
2:35 AM 7.5 °F 0.8 °F 4.5 °F 87% 29.84 in 1.8 mi West 3.5 mph - N/A Snow Light Snow
2:55 AM 7.2 °F - 4.1 °F 87% 29.83 in 2.5 mi Calm Calm - N/A Snow Light Snow
3:15 AM 6.8 °F - 3.7 °F 87% 29.83 in 1.5 mi Calm Calm - N/A Snow Light Snow
3:35 AM 6.8 °F - 3.7 °F 87% 29.82 in 1.8 mi Calm Calm - N/A Snow Light Snow
3:55 AM 6.8 °F - 3.7 °F 87% 29.81 in 2.0 mi Calm Calm - N/A Snow Light Snow
4:15 AM 6.8 °F -0.1 °F 3.7 °F 87% 29.80 in 4.0 mi WSW 3.5 mph - N/A Snow Light Snow
4:35 AM 7.2 °F -1.5 °F 3.6 °F 85% 29.79 in 5.0 mi West 4.6 mph - N/A Snow Light Snow
4:55 AM 7.2 °F -1.5 °F 3.2 °F 84% 29.79 in 4.0 mi West 4.6 mph - N/A Snow Light Snow
5:15 AM 6.8 °F -2.0 °F 3.0 °F 84% 29.79 in 7.0 mi West 4.6 mph - N/A Snow Light Snow
5:35 AM 6.8 °F -4.8 °F 2.7 °F 83% 29.79 in 5.0 mi West 6.9 mph - N/A Snow Light Snow
5:55 AM 6.6 °F -5.0 °F 2.3 °F 82% 29.79 in 4.0 mi West 6.9 mph - N/A Snow Light Snow
6:15 AM 6.4 °F -5.2 °F 2.1 °F 82% 29.79 in 5.0 mi West 6.9 mph - N/A Snow Light Snow
6:35 AM 5.9 °F -3.0 °F 1.4 °F 82% 29.78 in 10.0 mi WSW 4.6 mph - N/A Snow Light Snow
6:55 AM 5.9 °F -5.8 °F 1.4 °F 82% 29.78 in 10.0 mi West 6.9 mph - N/A Snow Light Snow
7:15 AM 5.0 °F -2.1 °F 0.9 °F 83% 29.77 in 7.0 mi WSW 3.5 mph - N/A Snow Light Snow
7:35 AM 3.7 °F -5.5 °F -0.2 °F 84% 29.77 in 7.0 mi WSW 4.6 mph - N/A Snow Light Snow
7:55 AM 3.0 °F -4.4 °F -0.6 °F 85% 29.78 in 7.0 mi WSW 3.5 mph - N/A Snow Light Snow
8:15 AM 3.2 °F -7.8 °F -0.6 °F 84% 29.78 in 7.0 mi WSW 5.8 mph - N/A Snow Light Snow
8:35 AM 3.7 °F -10.6 °F -0.4 °F 83% 29.78 in 5.0 mi WSW 9.2 mph - N/A Snow Light Snow
8:55 AM 3.9 °F -8.2 °F -0.2 °F 83% 29.78 in 2.0 mi WSW 6.9 mph - N/A Snow Light Snow
9:15 AM 4.5 °F -13.0 °F -0.4 °F 80% 29.79 in 3.0 mi WSW 13.8 mph 18.4 mph N/A Snow Light Snow
9:35 AM 4.5 °F -8.7 °F -0.9 °F 78% 29.78 in 4.0 mi WSW 8.1 mph 16.1 mph N/A Snow Light Snow
9:55 AM 4.8 °F -7.1 °F -0.8 °F 78% 29.78 in 4.0 mi WSW 6.9 mph - N/A   Haze
10:15 AM 4.8 °F -11.8 °F -1.1 °F 76% 29.77 in 5.0 mi WSW 12.7 mph 18.4 mph N/A   Haze
10:35 AM 5.0 °F -11.6 °F -0.4 °F 78% 29.76 in 3.0 mi WSW 12.7 mph 20.7 mph N/A   Haze
10:55 AM 5.0 °F -13.0 °F -1.7 °F 74% 29.76 in 5.0 mi WSW 15.0 mph 24.2 mph N/A   Haze
11:15 AM 5.0 °F -13.0 °F -1.7 °F 74% 29.75 in 4.0 mi WSW 15.0 mph 20.7 mph N/A   Haze
11:35 AM 5.7 °F -10.7 °F -1.3 °F 73% 29.75 in 3.0 mi WSW 12.7 mph 20.7 mph N/A   Haze
11:55 AM 4.1 °F -12.7 °F -3.5 °F 71% 29.75 in 10.0 mi WSW 12.7 mph 23.0 mph N/A   Mostly Cloudy
12:15 PM 5.0 °F -11.6 °F -2.6 °F 71% 29.74 in 5.0 mi West 12.7 mph 23.0 mph N/A   Haze
12:35 PM 4.8 °F -14.9 °F -3.3 °F 69% 29.74 in 7.0 mi West 18.4 mph 21.9 mph N/A   Overcast
12:55 PM 3.0 °F -14.8 °F -5.4 °F 68% 29.75 in 4.0 mi West 13.8 mph 25.3 mph N/A   Haze
1:15 PM 1.6 °F -15.9 °F -6.2 °F 70% 29.77 in 5.0 mi West 12.7 mph 26.5 mph N/A   Haze
1:35 PM 1.0 °F -18.0 °F -7.4 °F 68% 29.77 in 4.0 mi West 15.0 mph 28.8 mph N/A   Haze
1:55 PM 0.3 °F -16.7 °F -8.5 °F 66% 29.78 in 5.0 mi West 11.5 mph 25.3 mph N/A   Haze
2:15 PM -1.3 °F -20.3 °F -9.6 °F 68% 29.79 in 7.0 mi West 13.8 mph 23.0 mph N/A   Overcast
2:35 PM -0.8 °F -21.6 °F -8.7 °F 69% 29.80 in 5.0 mi WSW 17.3 mph 23.0 mph N/A   Haze
2:55 PM -2.6 °F -23.3 °F -10.3 °F 70% 29.81 in 7.0 mi West 16.1 mph 21.9 mph N/A   Overcast
3:15 PM -3.1 °F -24.0 °F -11.2 °F 68% 29.82 in 4.0 mi West 16.1 mph 29.9 mph N/A   Haze
3:35 PM -4.2 °F -25.4 °F -12.1 °F 69% 29.84 in 7.0 mi West 16.1 mph 27.6 mph N/A   Mostly Cloudy
3:55 PM -4.9 °F -25.6 °F -12.8 °F 69% 29.85 in 7.0 mi WSW 15.0 mph 24.2 mph N/A   Mostly Cloudy
4:15 PM -5.8 °F -24.4 °F -13.0 °F 71% 29.86 in 10.0 mi West 11.5 mph 21.9 mph N/A   Scattered Clouds
4:35 PM -6.2 °F -24.8 °F -13.0 °F 72% 29.87 in 10.0 mi West 11.5 mph 19.6 mph N/A   Scattered Clouds
4:55 PM -6.7 °F -26.4 °F -13.2 °F 73% 29.88 in 10.0 mi West 12.7 mph 18.4 mph N/A   Scattered Clouds
5:15 PM -6.9 °F -24.8 °F -13.2 °F 74% 29.89 in 10.0 mi West 10.4 mph - N/A   Clear
5:35 PM -7.6 °F -23.4 °F -13.5 °F 75% 29.89 in 10.0 mi West 8.1 mph - N/A   Clear
5:55 PM -7.6 °F -25.7 °F -13.2 °F 77% 29.90 in 10.0 mi West 10.4 mph 17.3 mph N/A   Clear
6:15 PM -7.8 °F -24.8 °F -13.2 °F 77% 29.90 in 10.0 mi WSW 9.2 mph 16.1 mph N/A   Clear
6:35 PM -8.0 °F -26.1 °F -13.5 °F 77% 29.91 in 10.0 mi West 10.4 mph - N/A   Clear
6:55 PM -8.1 °F -22.7 °F -13.5 °F 77% 29.91 in 10.0 mi WSW 6.9 mph - N/A   Clear
7:15 PM -8.5 °F -23.2 °F -13.7 °F 78% 29.91 in 10.0 mi West 6.9 mph - N/A   Clear
7:35 PM -8.7 °F -21.9 °F -14.1 °F 77% 29.92 in 10.0 mi WSW 5.8 mph - N/A   Clear
7:55 PM -9.0 °F -18.2 °F -14.3 °F 78% 29.91 in 10.0 mi WSW 3.5 mph - N/A   Clear
8:15 PM -9.4 °F -18.6 °F -14.4 °F 78% 29.91 in 10.0 mi South 3.5 mph - N/A   Clear
8:35 PM -10.5 °F -19.8 °F -15.2 °F 80% 29.90 in 10.0 mi SSW 3.5 mph - N/A   Clear
8:55 PM -11.7 °F -21.3 °F -16.1 °F 81% 29.89 in 10.0 mi SSW 3.5 mph - N/A   Clear
9:15 PM -12.6 °F -26.6 °F -16.8 °F 82% 29.89 in 10.0 mi SW 5.8 mph - N/A   Clear
9:35 PM -10.8 °F -24.4 °F -15.3 °F 80% 29.90 in 10.0 mi SW 5.8 mph - N/A   Clear
9:55 PM -10.8 °F -24.4 °F -15.5 °F 80% 29.89 in 10.0 mi SW 5.8 mph - N/A   Clear
10:15 PM -10.8 °F -26.0 °F -15.7 °F 79% 29.89 in 10.0 mi SW 6.9 mph - N/A   Clear
10:35 PM -10.8 °F -26.0 °F -15.7 °F 79% 29.89 in 10.0 mi SW 6.9 mph - N/A   Clear
10:55 PM -11.2 °F -23.0 °F -15.7 °F 80% 29.88 in 10.0 mi SW 4.6 mph - N/A   Clear
11:15 PM -12.8 °F -22.5 °F -17.3 °F 80% 29.87 in 10.0 mi South 3.5 mph - N/A   Clear
11:35 PM -12.6 °F -22.3 °F -17.3 °F 80% 29.86 in 7.0 mi South 3.5 mph - N/A Snow Light Snow
11:55 PM -13.0 °F -25.1 °F -17.5 °F 80% 29.87 in 10.0 mi South 4.6 mph - N/A   Clear